CZ-6A DEB, 64499

Orbit data source: Space-Track

CZ-6A DEB, 64499 is space debris in SSO originally from a launch on Fri, 11 Nov 2022 UTC launched from the Taiyaun Space Center, China (TSC). Debris objects in space refer to the collection of defunct objects orbiting the Earth. Examples of debris include non-operational satellites, rocket bodies, and fragments generated from explosions, collisions, or faulty payload assembly.

Loading next visibility...
Identifier
64499, 2022-151AJE
Orbit
SSO
Country
Flag of CNCN / PRC
Related business
Manufacturer
SAST
Mission
Spacecraft
Bus & Motor
Unknown
Mass
Unknown
Launch date (UTC)
2022-11-11 (4 years ago)
Launch vehicle
Unknown
Launch site
Taiyaun Space Center, China (TSC)
Object type
Payload
Rocket body
Debris
Shape & HBR
Unknown shape, 1.1 m
Radar Cross Section
Medium (>0.1 m² and <1 m²)

Expand to show TLE details & history
Last TLE update: 18 hours ago

TLE from 18 hours ago
0 CZ-6A DEB
1 64499U 22151AJE 26235.43554768  .00001408  00000-0  79351-3 0  9994
2 64499  98.8860 229.2730 0086029 180.8778 179.2255 14.10109696173304
Epoch: 2026-08-23T10:27Z
TLE epoch observation values (Epoch: 2026-08-23T10:27:11.319Z)
Latitude
-0°
Longitude
100.7442°
Altitude
924.159 km
Speed
7.358 km/s
True Right ascension
15h 17m 05s
True Declination
0° 00' 00"
Sunlit
Object was in daylight at epoch
Visualization orbit readout
Latitude
Unknown
Longitude
Unknown
Altitude
Unknown
Speed
Unknown
Apparent Right ascension
Unknown
Apparent Declination
Unknown
Sunlit
N/A
Visualization observer readout
Local Sidereal Time
19:30:25
Azimuth
Unknown
Elevation
Unknown
Doppler factor
Unknown
Orbital elements
Apogee altitude
918.412 km
Perigee altitude
793.94 km
Semi-major axis
7,234.313 km
Eccentricity
0.0086
Inclination
98.886°
RAAN
229.273°
Arg. of periapsis
180.8778°
True anomaly
179.23868°
Mean anomaly
179.2255°
Eccentric anomaly
179.23211°
Mean motion
3.52734 °/min
Orbital period
102.06 mins
BSTAR
0.00079351
Loading maneuver chart data...
Computing Atmospheric mass density...
Loading historical data...
Loading historical data...
Loading historical data...
Loading historical data...
Loading historical data...
Loading historical data...
Loading historical data...

Documentation

Showing up to 5 results
|